AO-07 1 07530U 74089B 16147.52344711 -.00000030 00000-0 86421-4 0 9998 2 07530 101.5726 118.8086 0012061 355.5046 119.4522 12.53621347900400 FO-29 1 24278U 96046B 16146.69054429 -.00000018 00000-0 20771-4 0 9996 2 24278 098.5854 074.8473 0349333 260.8553 095.2917 13.53067549976212 RS-22 1 27939U 03042A 16147.36227762 .00000174 00000-0 39755-4 0 9998 2 27939 97.8860 299.8818 0013435 20.7244 339.4509 14.66400526676624 HO-68 1 36122U 09072B 16147.47285656 -.00000059 00000-0 -43517-4 0 9994 2 36122 100.1452 184.2079 0008033 51.4124 308.7707 13.16334077309752 AO-73 1 39444U 13066AE 16147.13632424 .00000613 00000-0 83126-4 0 9998 2 39444 97.6827 201.5314 0060520 93.0895 267.7245 14.81045665134313 EO-79 1 40025U 14033R 16147.20427699 .00000489 00000-0 59398-4 0 9999 2 40025 97.9301 52.6692 0013705 131.6530 228.5862 14.87992956104937 XW-2A 1 40903U 15049E 16147.56837965 .00003486 00000-0 10064-3 0 9998 2 40903 97.4457 162.4580 0014907 206.3086 269.8839 15.36273342 38233 XW-2C 1 40906U 15049H 16147.57434557 .00001596 00000-0 92391-4 0 9996 2 40906 97.4520 155.1175 0017448 109.9848 7.8477 15.13533575 37737 LILACSAT-2 1 40908U 15049K 16147.57042769 .00001160 00000-0 70060-4 0 9994 2 40908 97.4588 155.0272 0018161 104.1082 12.7976 15.12510221 37719 XW-2E 1 40909U 15049L 16147.54207209 .00002416 00000-0 13450-3 0 9998 2 40909 97.4518 155.3109 0016702 112.4353 13.7577 15.14465772 37740 UO-11 1 14781U 84021B 16147.16922101 .00000159 00000-0 26027-4 0 9993 2 14781 97.7512 199.8444 0009297 35.7235 324.4599 14.82743271732990 LO-19 1 20442U 90005G 16147.41743416 .00000039 00000-0 30247-4 0 9997 2 20442 98.5427 82.6633 0011144 205.6284 154.4349 14.32816642376233 AO-27 1 22825U 93061C 16147.46368398 .00000022 00000-0 26046-4 0 9990 2 22825 98.7576 103.5780 0008977 28.3561 331.8108 14.29955722182138 IO-26 1 22826U 93061D 16146.88343482 .00000027 00000-0 27755-4 0 9996 2 22826 098.7519 103.1208 0009377 021.2977 338.8593 14.30280143181960 GO-32 1 25397U 98043D 16147.49303894 .00000004 00000-0 20381-4 0 9991 2 25397 98.5657 92.9996 0002310 64.9804 295.1614 14.23594425928779 NO-44 1 26931U 01043C 16146.89313160 .00000010 00000-0 35569-4 0 9991 2 26931 067.0521 010.4262 0006976 262.1550 097.8759 14.30408230764881 SO-50 1 27607U 02058C 16147.20030061 .00000131 00000-0 39502-4 0 9996 2 27607 64.5553 228.0204 0070358 221.6766 137.8964 14.75155300722025 CO-55 1 27844U 03031E 16147.00629544 .00000079 00000-0 55732-4 0 9993 2 27844 98.6925 155.6111 0010382 33.5553 326.6281 14.21949397669293 CO-57 1 27848U 03031J 16146.97316182 .00000067 00000-0 50271-4 0 9993 2 27848 98.7022 155.6595 0010436 41.3923 318.8044 14.21575841669187 CO-65 1 32785U 08021C 16147.17310382 .00000434 00000-0 53454-4 0 9996 2 32785 97.6045 182.3030 0013579 16.7918 343.3746 14.87553111437350 PRISM 1 33493U 09002B 16147.58488347 .00001483 00000-0 14163-3 0 9993 2 33493 98.2197 6.6606 0014173 280.8685 79.0880 14.94902892398007 TISAT-1 1 36799U 10035E 16147.82849161 .00000721 00000-0 81195-4 0 9999 2 36799 98.0285 257.7793 0013427 150.7297 209.4674 14.89785728318245 ALMASAT-1 1 38078U 12006B 16146.95010717 .00017076 34099-5 24712-3 0 9993 2 38078 069.4481 079.1727 0387229 134.1861 229.1818 15.01723709226240 DUCHIFAT-1 1 40021U 14033M 16147.51463759 .00000712 00000-0 81082-4 0 9990 2 40021 97.9330 54.0052 0014335 129.4132 230.8356 14.89276133105034 NANOSATCBR1 1 40024U 14033Q 16147.15085516 .00000702 00000-0 81192-4 0 9995 2 40024 97.9306 53.0674 0013538 130.3115 229.9286 14.88689528104951 DTUSAT-2 1 40030U 14033W 16147.51659119 .00000502 00000-0 61278-4 0 9999 2 40030 97.9280 52.4517 0013286 124.8562 235.3905 14.87625643104958 ANTELSAT 1 40034U 14033AA 16147.56642684 .00000532 00000-0 87479-4 0 9991 2 40034 97.9067 36.4239 0060847 94.9661 265.8497 14.73372426103990 MET-2/21 1 22782U 93055A 16146.90567366 .00000014 00000-0 -10493-5 0 9991 2 22782 82.5478 330.9165 0023777 78.0023 29.7181 13.83788136148133 NOAA-15 1 25338U 98030A 16147.53734250 .00000074 00000-0 50157-4 0 9992 2 25338 98.7828 151.6435 0009508 246.4726 113.5455 14.25727586937902 NOAA-18 1 28654U 05018A 16147.52540149 .00000027 00000-0 40230-4 0 9990 2 28654 99.1973 153.8935 0015419 76.9364 283.3527 14.12285837567676 NOAA-19 1 33591U 09005A 16147.47624402 .00000088 00000-0 72932-4 0 9996 2 33591 99.0383 104.0730 0012937 281.7168 78.2552 14.12075320376072 HUBBLE 1 20580U 90037B 16146.94210321 .00000798 00000-0 38843-4 0 9998 2 20580 28.4707 45.6180 0002644 332.1299 133.5279 15.08367297231749 ISS 1 25544U 98067A 16147.49939569 .00002135 00000-0 38719-4 0 9996 2 25544 51.6421 166.2229 0001958 126.9785 355.2252 15.54691007 1610 CO-58 1 28895U 05043F 16147.41787242 .00000237 00000-0 54698-4 0 9996 2 28895 97.8314 322.4516 0015530 289.3816 70.5708 14.63191556563923 CAPE1 1 31130U 07012P 16146.85872567 .00000286 00000-0 71641-4 0 9993 2 31130 098.0312 103.1437 0095951 326.3923 033.1212 14.55924341482890 AAUSAT2 1 32788U 08021F 16146.86163259 .00001188 00000-0 11889-3 0 9995 2 32788 097.6053 190.4684 0011753 352.8714 007.2336 14.93180525437765 DO-64 1 32789U 08021G 16146.89634799 .00002306 00000-0 17498-3 0 9996 2 32789 097.6084 206.5122 0012181 346.0550 014.0337 15.03145965438551 CO-66 1 32791U 08021J 16147.29280398 .00000577 00000-0 65642-4 0 9999 2 32791 97.6053 185.5054 0013606 5.9915 354.1463 14.89745959437536 RS-30 1 32953U 08025A 16147.47235670 .00000010 00000-0 -13620-7 0 9991 2 32953 82.5001 120.1548 0020302 51.2487 309.0407 12.43069628363382 JUGNU 1 37839U 11058B 16145.47583918 .00000336 00000-0 37141-4 0 9999 2 37839 19.9617 287.3337 0018827 218.6849 175.4333 14.12541069238677 SRMSAT 1 37841U 11058D 16146.84595161 .00000325 00000-0 33296-4 0 9992 2 37841 19.9734 312.7507 0011795 147.5546 359.5162 14.10540142238532 AO-71 1 37854U 11061E 16146.78954609 .00002717 00000-0 15756-3 0 9996 2 37854 101.7043 178.0858 0173929 139.9372 221.4817 15.02047112248289 HRBE 1 37855U 11061F 16146.79271657 .00002459 00000-0 14053-3 0 9995 2 37855 101.7176 176.1794 0187724 143.9508 217.4531 15.00960584248169 HORYU-2 1 38340U 12025D 16146.92176808 .00000450 00000-0 74874-4 0 9990 2 38340 98.3538 131.7627 0013149 84.0046 276.2660 14.75013795216193 RS-40 1 38735U 12041C 16147.48529578 .00000040 00000-0 21992-3 0 9991 2 38735 82.4779 205.2951 0017511 147.1942 213.0227 12.42572733173679 BEESAT-3 1 39134U 13015E 16147.08110359 .00002330 00000-0 13116-3 0 9999 2 39134 64.8718 34.0546 0008850 272.8630 87.1483 15.15859166170766 BEESAT-2 1 39136U 13015G 16147.12110159 .00001670 00000-0 10316-3 0 9999 2 39136 64.8729 39.7052 0007629 271.6239 88.4011 15.13549448170666 ZACUBE-1 1 39417U 13066B 16147.37908361 .00000471 00000-0 66406-4 0 9994 2 39417 97.6816 201.1812 0061281 94.1128 266.7092 14.80381002135548 TRITON-1 1 39427U 13066M 16147.06108550 .00000373 00000-0 67921-4 0 9997 2 39427 97.6688 181.7734 0115731 147.5128 213.3270 14.67174262134273 GOMX-1 1 39430U 13066Q 16147.50844300 .00000421 00000-0 85961-4 0 9998 2 39430 97.6710 170.1011 0152572 183.3312 176.6896 14.58582071133567 LO-74 1 39440U 13066AA 16146.90255440 .00000475 00000-0 73699-4 0 9997 2 39440 097.6754 193.1215 0082673 115.4728 245.5063 14.75142584133795 SPROUT 1 39770U 14029E 16146.86528990 .00001081 00000-0 13187-3 0 9990 2 39770 97.8708 244.3472 0010304 149.2588 210.9181 14.85342671108628 EO-80 1 40032U 14033Y 16147.54171859 .00000495 00000-0 60666-4 0 9995 2 40032 97.9288 52.4866 0013215 124.9723 235.2736 14.87558975104951 VELOX-1 1 40057U 14034E 16147.51649811 .00000714 00000-0 10973-3 0 9997 2 40057 98.1943 235.9921 0010278 210.1750 149.8863 14.76689029102685 DAURIA DX 1 1 40071U 14037C 16147.51682179 .00000290 00000-0 44996-4 0 9992 2 40071 98.3313 237.5888 0007756 206.9423 153.1385 14.80809354101744 UKUBE-1 1 40074U 14037F 16147.48616538 .00000674 00000-0 90007-4 0 9997 2 40074 98.3353 239.5992 0004084 199.0887 161.0172 14.83055968101857 HODOYOSHI-1 1 40299U 14070B 16147.49864896 .00001476 00000-0 69006-4 0 9992 2 40299 97.4305 229.6625 0014033 15.4158 111.4046 15.21271156 86137 CHUBUSAT-1 1 40300U 14070C 16147.49036323 .00001715 00000-0 82914-4 0 9990 2 40300 97.4265 227.9454 0021836 18.9974 104.1225 15.19776169 86037 QSAT-EOS 1 40301U 14070D 16147.52560427 .00003234 00000-0 14740-3 0 9991 2 40301 97.4214 227.2912 0029845 17.2017 97.1445 15.20987199 86014 FIREBIRD FU3 1 40377U 15003B 16147.50088420 .00004858 00000-0 22226-3 0 9998 2 40377 99.0844 250.2160 0144507 201.0309 158.4937 15.12288891 72505 FIREBIRD FU4 1 40378U 15003C 16147.49740875 .00004821 00000-0 22041-3 0 9991 2 40378 99.0846 250.2254 0144722 200.9910 158.5337 15.12296804 72505 GRIFEX 1 40379U 15003D 16147.20953239 .00002875 00000-0 13886-3 0 9995 2 40379 99.0855 249.1060 0148414 205.3293 154.0606 15.10589718 72410 NO-84 1 40654U 15025D 16147.46404141 .00011057 00000-0 23977-3 0 01284 2 40654 054.9976 154.4007 0211519 020.0375 340.8796 15.24751447020726 NO-83 1 40655U 15025E 16147.44455803 .00017702 00000-0 35035-3 0 01421 2 40655 054.9855 148.8545 0194616 022.1022 338.8227 15.29359131020777 DEORBITSAIL 1 40719U 15032E 16147.18232856 .00000721 00000-0 11338-3 0 9995 2 40719 98.0197 39.0048 0015703 311.9483 48.0387 14.75516404 47240 NUDT-PHONESAT 1 40900U 15049B 16147.54683584 .00004298 00000-0 22209-3 0 9995 2 40900 97.4444 155.6578 0016668 127.0834 351.5966 15.16692941 37791 XW-2D 1 40907U 15049J 16147.57591240 .00001653 00000-0 95467-4 0 9991 2 40907 97.4491 155.0050 0016802 108.0914 8.6204 15.13570966 37735 XW-2F 1 40910U 15049M 16147.55023574 .00002663 00000-0 14972-3 0 9996 2 40910 97.4522 155.1437 0018044 107.7104 10.5341 15.14001594 37620 XW-2B 1 40911U 15049N 16147.57543182 .00001645 00000-0 95068-4 0 9996 2 40911 97.4532 155.1641 0016743 108.3722 9.7291 15.13555568 37635 DCBB 1 40912U 15049P 16147.57869692 .00002569 00000-0 13696-3 0 9996 2 40912 97.4530 155.8779 0018434 104.2035 12.9862 15.15929835 37683 TW-1C 1 40926U 15051B 16147.90609060 .00008609 00000-0 24592-3 0 9990 2 40926 97.2757 185.0574 0016263 122.5409 1.4859 15.36113415 37491 TW-1A 1 40928U 15051D 16147.54444727 .00004802 00000-0 15208-3 0 9994 2 40928 97.2706 183.9862 0015742 139.2387 324.8329 15.33095599 37409 IO-86 1 40931U 15052B 16146.04457429 .00000675 00000-0 51620-5 0 9990 2 40931 5.9996 120.0676 0012801 154.4365 205.7444 14.76459730 35504 GomX-3 1 40949U 98067HA 16147.59132868 .00060377 00000-0 35668-3 0 9991 2 40949 51.6305 145.9917 0003679 104.4759 255.6649 15.77528852 36656 LQSat 1 40958U 15057A 16147.84364294 .00000149 00000-0 31182-4 0 9996 2 40958 98.0152 223.0177 0017082 219.4027 140.5931 14.72865016 34244 AO-85 1 40967U 15058D 16147.42644950 .00000642 00000-0 85956-4 0 01427 2 40967 064.7771 311.8204 0206450 212.2071 146.6290 14.74992997020068 ATHENOXAT-1 1 41168U 15077C 16147.17731906 .00003389 00000-0 16315-3 0 9995 2 41168 14.9859 113.1638 0012835 59.4567 48.5330 15.09876941 24421 ChubuSat-2 1 41338U 16012B 16146.95140279 .00000651 00000-0 45031-4 0 9993 2 41338 031.0034 050.9732 0014340 188.4657 171.5736 14.99372433014818 ChubuSat-3 1 41339U 16012C 16147.80119926 .00000653 00000-0 44856-4 0 9990 2 41339 31.0101 45.3800 0014111 202.7155 157.2862 14.99603886 14918 Horyu-4 1 41340U 16012D 16146.91346031 .00001069 00000-0 76993-4 0 9991 2 41340 31.0054 50.6624 0014671 198.3893 161.6200 14.99997608 14801 OUFTI-1 1 41458U 16025C 16147.55155243 .00002486 00000-0 14368-3 0 9990 2 41458 98.2155 156.8050 0178211 139.3573 222.1111 15.00897699 4536 e-st@r-II 1 41459U 16025D 16147.55126325 .00002237 00000-0 12971-3 0 9992 2 41459 98.2152 156.8056 0178281 139.3924 222.0751 15.00904287 4538 AAUSAT4 1 41460U 16025E 16147.55044921 .00003677 00000-0 20991-3 0 9995 2 41460 98.2148 156.8050 0177744 139.2642 222.2015 15.00990443 4532 MinXSS 1 41474U 98067HU 16147.43208010 .00021506 00000-0 31095-3 0 9992 2 41474 51.6449 166.4900 0003793 60.1053 79.7504 15.55856962 1548 CADRE 1 41475U 98067HV 16147.49846865 .00031320 00000-0 44621-3 0 9999 2 41475 51.6456 166.1514 0004179 56.8678 97.7350 15.56032398 1559 STMSat 1 1 41476U 98067HW 16147.43440794 .00021868 00000-0 31632-3 0 9999 2 41476 51.6446 166.4819 0003820 42.2602 109.3047 15.55834143 1457 NODES 1 1 41477U 98067HX 16147.43422181 .00016795 00000-0 24591-3 0 9999 2 41477 51.6429 166.4834 0003799 37.2141 110.5131 15.55699695 1452 NODES 2 1 41478U 98067HY 16147.43427568 .00016025 00000-0 23519-3 0 9999 2 41478 51.6432 166.4899 0003547 40.8018 106.5688 15.55675644 1452 /EX